Regional Weather Roundup
Issued by NWS Nashville, TN

Home | Current Version | Previous Version | Text Only | Print | Product List | Glossary On
Versions: 1 2 3 4 5 6 7 8 9 10 11 12 13 14 15 16 17 18 19 20 21 22 23 24 25 26 27 28 29 30 31 32 33 34 35 36 37 38 39 40 41 42 43 44 45 46 47 48 49 50
000
ASUS44 KOHX 221910
RWROHX
MIDDLE TENNESSEE HOURLY WEATHER ROUNDUP
NATIONAL WEATHER SERVICE NASHVILLE TN
200 PM CDT TUE AUG 22 2017

NOTE: "FAIR" INDICATES FEW OR NO CLOUDS BELOW 12,000 FEET WITH
NO SIGNIFICANT WEATHER AND/OR OBSTRUCTIONS TO VISIBILITY.

* THESE REPORTS ARE NOT UNDER NWS QUALITY CONTROL AND MAY NOT
  REPORT WEATHER SUCH AS PRECIPITATION AND FOG.


TNZ005>011-023>034-057-059-062>066-078-080-222000
...NORTHERN MIDDLE TENNESSEE...

CITY           SKY/WX    TMP DP  RH WIND       PRES   REMARKS
CLARKSVILLE    CLOUDY    87  72  60 SW10      29.97F HX  93
CROSSVILLE     MOSUNNY   85  67  54 SW8       30.10F
GALLATIN       MOSUNNY   90  73  58 VRB5      30.01F HX  98
DICKSON        CLOUDY    89  72  57 W10       30.00F HX  96
LEBANON        CLOUDY    81  72  74 SW10      30.00F
NASHVILLE      CLOUDY    83  74  74 SW8       30.01F
PORTLAND       PTSUNNY   88  72  58 W9G18     29.98F HX  94
SMYRNA         PTSUNNY   90  74  59 NW12G22   30.01F HX  99
SPARTA         MOSUNNY   88  72  58 SW12G18   30.02F HX  94
SPRINGFIELD    SUNNY     88  73  62 SW9       29.96F HX  96
WEST NASHVILLE MOSUNNY   90  73  58 S13G21    29.97F HX  98
$$
TNZ056-058-060-061-075>077-079-093>097-222000
...SOUTHERN MIDDLE TENNESSEE...

CITY           SKY/WX    TMP DP  RH WIND       PRES   REMARKS
COLUMBIA       SUNNY     90  75  62 S13G20    30.00F HX 100
FAYETTEVILLE   SUNNY     88  68  51 W9G17     30.06F HX  91
MCMINNVILLE    SUNNY     90  72  55 SW12      30.04F HX  96
MURFREESBORO   MOSUNNY   92  70  48 SW13      30.00F HX  97
PULASKI        SUNNY     91  73  55 SW9       30.03F HX 100
SHELBYVILLE    MOSUNNY   90  72  55 S15       30.03F HX  96
TULLAHOMA      SUNNY     90  66  45 SW10      30.07F HX  92
WINCHESTER     MOSUNNY   90  72  55 SW8       30.06F HX  96
$$


...KEY TO REMARKS...
VSB - VISIBILITY IN MILES
WCI - WIND CHILL INDEX
HX  - HEAT INDEX




USA.gov is the U.S. government's official web portal to all federal, state and local government web resources and services.